User: anonymous   Login
Location: Fort Wayne
(41.1310°N, 85.1290°W)
Time: 01:20:05
(UTC-04:00)
Language:

Cosmos 1980 - Orbit

View from above orbital plane
View from above orbital plane
View from above satellite
View from above satellite

Ground track
Ground track

The orbit data is extracted from the following two-line orbital elements,

1 19649U 88102A   17083.84193508 +.00000142 +00000-0 +98401-4 0  9998
2 19649 070.9984 242.8636 0003385 080.3896 279.7609 14.14658414462372
Epoch (UTC): 24 March 2017 20:12:23
Eccentricity: 0.0003385
inclination: 70.9984°
perigee height: 841 km
apogee height: 846 km
right ascension of ascending node: 242.8636°
argument of perigee: 80.3896°
revolutions per day: 14.14658414
mean anomaly at epoch: 279.7609°
orbit number at epoch: 46237

The dashed part of the orbit path shows where the satellite is in the earth's shadow,  

DLR